| time (UTC) | temp F | wind direction | speed MPH | gust MPH | rain 1hr in | rain 24hr in | rain mn in | humidity % | barometer mb |
| 20260502161936 | 83 | 80 | 2.0 | 2.0 | 0.00 | 0.00 | 0.00 | 23 | 1014.4 |
| 20260502160434 | 84 | 97 | 2.0 | 2.0 | 0.00 | 0.00 | 0.00 | 22 | 1014.1 |
| 20260502151929 | 82 | 184 | 3.0 | 5.0 | 0.00 | 0.00 | 0.00 | 24 | 1013.8 |
| 20260502150425 | 81 | 80 | 3.0 | 6.0 | 0.00 | 0.00 | 0.00 | 23 | 1013.6 |
| 20260502130404 | 70 | 126 | 0.0 | 0.0 | 0.00 | 0.00 | 0.00 | 23 | 1012.3 |
| 20260502123358 | 72 | 78 | 1.0 | 1.0 | 0.00 | 0.00 | 0.00 | 22 | 1011.8 |
| 20260502121856 | 73 | 61 | 3.0 | 3.0 | 0.00 | 0.00 | 0.00 | 21 | 1011.8 |
| 20260502120352 | 68 | 97 | 1.0 | 1.0 | 0.00 | 0.00 | 0.00 | 25 | 1011.8 |
| 20260502114848 | 66 | 133 | 0.0 | 0.0 | 0.00 | 0.00 | 0.00 | 28 | 1011.6 |
| 20260502113346 | 67 | 128 | 0.0 | 0.0 | 0.00 | 0.00 | 0.00 | 28 | 1011.6 |
| 20260502111845 | 68 | 136 | 0.0 | 1.0 | 0.00 | 0.00 | 0.00 | 25 | 1011.3 |
| 20260502110343 | 70 | 117 | 0.0 | 0.0 | 0.00 | 0.00 | 0.00 | 23 | 1011.5 |
| 20260502104841 | 71 | 52 | 0.0 | 1.0 | 0.00 | 0.00 | 0.00 | 23 | 1011.4 |
| 20260502103338 | 73 | 10 | 2.0 | 2.0 | 0.00 | 0.00 | 0.00 | 21 | 1011.3 |
| 20260502101835 | 73 | 23 | 2.0 | 2.0 | 0.00 | 0.00 | 0.00 | 21 | 1011.1 |
| 20260502100330 | 71 | 124 | 0.0 | 0.0 | 0.00 | 0.00 | 0.00 | 23 | 1011.1 |
| 20260502090320 | 74 | 66 | 2.0 | 2.0 | 0.00 | 0.00 | 0.00 | 21 | 1010.7 |
| 20260502070303 | 75 | 136 | 0.0 | 1.0 | 0.00 | 0.00 | 0.00 | 19 | 1010.1 |
| 20260502064758 | 76 | 154 | 1.0 | 1.0 | 0.00 | 0.00 | 0.00 | 19 | 1010.3 |
| 20260502063256 | 77 | 149 | 1.0 | 1.0 | 0.00 | 0.00 | 0.00 | 18 | 1010.1 |
| 20260502061755 | 77 | 176 | 1.0 | 1.0 | 0.00 | 0.00 | 0.00 | 18 | 1009.7 |
| 20260502060254 | 77 | 110 | 2.0 | 3.0 | 0.00 | 0.00 | 0.00 | 18 | 1009.6 |
| 20260502054749 | 77 | 182 | 3.0 | 3.0 | 0.00 | 0.00 | 0.00 | 18 | 1009.7 |
| 20260502053246 | 77 | 167 | 1.0 | 1.0 | 0.00 | 0.00 | 0.00 | 19 | 1009.7 |
| 20260502051746 | 78 | 179 | 1.0 | 1.0 | 0.00 | 0.00 | 0.00 | 19 | 1009.4 |
| 20260502050242 | 79 | 156 | 1.0 | 1.0 | 0.00 | 0.00 | 0.00 | 18 | 1009.5 |
| 20260502044739 | 79 | 124 | 0.0 | 0.0 | 0.00 | 0.00 | 0.00 | 18 | 1009.4 |
| 20260502043236 | 80 | 142 | 0.0 | 0.0 | 0.00 | 0.00 | 0.00 | 17 | 1009.3 |
| 20260502041736 | 81 | 132 | 1.0 | 1.0 | 0.00 | 0.00 | 0.00 | 16 | 1008.8 |
| 20260502040233 | 82 | 151 | 1.0 | 1.0 | 0.00 | 0.00 | 0.00 | 16 | 1008.9 |
| 20260502034729 | 82 | 201 | 1.0 | 1.0 | 0.00 | 0.00 | 0.00 | 16 | 1008.6 |
| 20260502033229 | 83 | 207 | 2.0 | 2.0 | 0.00 | 0.00 | 0.00 | 16 | 1008.7 |
| 20260502031725 | 83 | 170 | 1.0 | 1.0 | 0.00 | 0.00 | 0.00 | 15 | 1008.7 |
| 20260502030224 | 84 | 186 | 1.0 | 1.0 | 0.00 | 0.00 | 0.00 | 16 | 1008.3 |
| 20260502024723 | 85 | 216 | 1.0 | 2.0 | 0.00 | 0.00 | 0.00 | 16 | 1008.3 |
| 20260502023221 | 85 | 205 | 1.0 | 1.0 | 0.00 | 0.00 | 0.00 | 15 | 1008.3 |
| 20260502021718 | 86 | 172 | 1.0 | 2.0 | 0.00 | 0.00 | 0.00 | 15 | 1008.2 |
| 20260502020215 | 87 | 205 | 1.0 | 2.0 | 0.00 | 0.00 | 0.00 | 14 | 1008.4 |
| 20260502014713 | 88 | 181 | 2.0 | 3.0 | 0.00 | 0.00 | 0.00 | 14 | 1008.1 |
| 20260502013213 | 89 | 189 | 4.0 | 6.0 | 0.00 | 0.00 | 0.00 | 14 | 1008.0 |
| 20260502011711 | 89 | 139 | 1.0 | 1.0 | 0.00 | 0.00 | 0.00 | 14 | 1007.9 |
| 20260502010207 | 91 | 162 | 2.0 | 2.0 | 0.00 | 0.00 | 0.00 | 13 | 1008.4 |
| 20260502004703 | 90 | 160 | 3.0 | 3.0 | 0.00 | 0.00 | 0.00 | 14 | 1008.1 |
| 20260502003201 | 90 | 179 | 3.0 | 3.0 | 0.00 | 0.00 | 0.00 | 14 | 1008.3 |
| 20260502001657 | 91 | 205 | 3.0 | 3.0 | 0.00 | 0.00 | 0.00 | 14 | 1008.1 |
| 20260502000156 | 91 | 220 | 5.0 | 6.0 | 0.00 | 0.00 | 0.00 | 14 | 1008.3 |
| 20260501234655 | 91 | 236 | 1.0 | 2.0 | 0.00 | 0.00 | 0.00 | 15 | 1008.6 |
| 20260501233153 | 90 | 199 | 5.0 | 7.0 | 0.00 | 0.00 | 0.00 | 16 | 1008.3 |
| 20260501231650 | 92 | 211 | 2.0 | 3.0 | 0.00 | 0.00 | 0.00 | 15 | 1008.3 |
| 20260501230150 | 90 | 185 | 7.0 | 8.0 | 0.00 | 0.00 | 0.00 | 16 | 1008.3 |
| 20260501224646 | 89 | 169 | 3.0 | 3.0 | 0.00 | 0.00 | 0.00 | 16 | 1008.4 |
| 20260501223142 | 89 | 100 | 2.0 | 2.0 | 0.00 | 0.00 | 0.00 | 16 | 1008.8 |
| 20260501221638 | 88 | 173 | 6.0 | 9.0 | 0.00 | 0.00 | 0.00 | 17 | 1008.9 |
| 20260501220136 | 89 | 271 | 6.0 | 7.0 | 0.00 | 0.00 | 0.00 | 17 | 1008.9 |
| 20260501214634 | 89 | 168 | 2.0 | 2.0 | 0.00 | 0.00 | 0.00 | 17 | 1009.5 |
| 20260501213129 | 88 | 185 | 2.0 | 3.0 | 0.00 | 0.00 | 0.00 | 16 | 1009.5 |
| 20260501211625 | 90 | 172 | 1.0 | 1.0 | 0.00 | 0.00 | 0.00 | 16 | 1010.0 |
| 20260501210122 | 87 | 165 | 7.0 | 8.0 | 0.00 | 0.00 | 0.00 | 16 | 1010.1 |
| 20260501204618 | 86 | 221 | 1.0 | 2.0 | 0.00 | 0.00 | 0.00 | 16 | 1010.2 |
| 20260501203115 | 86 | 208 | 2.0 | 3.0 | 0.00 | 0.00 | 0.00 | 19 | 1010.6 |
| 20260501201611 | 86 | 149 | 1.0 | 1.0 | 0.00 | 0.00 | 0.00 | 19 | 1010.8 |
| 20260501200108 | 86 | 174 | 4.0 | 6.0 | 0.00 | 0.00 | 0.00 | 20 | 1010.9 |
| 20260501194608 | 86 | 248 | 3.0 | 3.0 | 0.00 | 0.00 | 0.00 | 20 | 1011.0 |
| 20260501193106 | 83 | 247 | 3.0 | 5.0 | 0.00 | 0.00 | 0.00 | 22 | 1011.5 |
| 20260501191603 | 83 | 186 | 1.0 | 1.0 | 0.00 | 0.00 | 0.00 | 22 | 1011.8 |
| 20260501184602 | 82 | 206 | 3.0 | 5.0 | 0.00 | 0.00 | 0.00 | 24 | 1011.9 |
| 20260501183102 | 83 | 215 | 3.0 | 3.0 | 0.00 | 0.00 | 0.00 | 24 | 1012.2 |
| 20260501181559 | 82 | 82 | 1.0 | 2.0 | 0.00 | 0.00 | 0.00 | 23 | 1012.4 |
| 20260501180055 | 83 | 123 | 2.0 | 3.0 | 0.00 | 0.00 | 0.00 | 22 | 1012.5 |
| 20260501174552 | 79 | 153 | 1.0 | 1.0 | 0.00 | 0.00 | 0.00 | 25 | 1012.4 |
| 20260501173049 | 79 | 120 | 1.0 | 1.0 | 0.00 | 0.00 | 0.00 | 26 | 1012.8 |
| 20260501171549 | 78 | 244 | 2.0 | 2.0 | 0.00 | 0.00 | 0.00 | 26 | 1012.7 |
| 20260501170045 | 78 | 181 | 2.0 | 2.0 | 0.00 | 0.00 | 0.00 | 28 | 1012.8 |
| 20260501164543 | 78 | 185 | 3.0 | 5.0 | 0.00 | 0.00 | 0.00 | 29 | 1012.8 |
| 20260501163039 | 77 | 179 | 2.0 | 3.0 | 0.00 | 0.00 | 0.00 | 30 | 1012.8 |